EWG5T EDDL-EDDV

Flight info

Callsign EWG5T
Flight time 0h 39m
Altitude 23000
Route MEVEL1Z MEVEL Y850 FUWUG T463 NIE NIE1R
Aircraft A319/M-SDE3FGHIRWY/LB1

Departure

Time 2026-05-05 08:34
Airport Düsseldorf Airport (EDDL)

Arrival

Time 2026-05-05 09:13
Airport Hannover Airport (EDDV)
Time Latitude Longitude Altitude Speed Heading
2026-05-05 07:57 51.28567 6.77217 128 ft 0 kts 322°
2026-05-05 07:58 51.28595 6.77266 126 ft 0 kts 322°
2026-05-05 08:25 51.28575 6.77290 123 ft 3 kts 322°
2026-05-05 08:25 51.28557 6.77310 123 ft 4 kts 345°
2026-05-05 08:25 51.28532 6.77309 125 ft 4 kts 30°
2026-05-05 08:25 51.28511 6.77282 123 ft 4 kts 51°
2026-05-05 08:26 51.28504 6.77268 128 ft 1 kts 52°
2026-05-05 08:28 51.28516 6.77293 123 ft 6 kts 53°
2026-05-05 08:28 51.28547 6.77367 127 ft 10 kts 53°
2026-05-05 08:29 51.28589 6.77456 127 ft 11 kts 52°
2026-05-05 08:29 51.28636 6.77555 127 ft 12 kts 53°
2026-05-05 08:29 51.28665 6.77636 129 ft 7 kts 80°
2026-05-05 08:30 51.28695 6.77792 127 ft 8 kts 53°
2026-05-05 08:30 51.28739 6.77861 127 ft 10 kts 21°
2026-05-05 08:30 51.28798 6.77815 128 ft 11 kts 322°
2026-05-05 08:30 51.28865 6.77733 125 ft 12 kts 322°
2026-05-05 08:31 51.28942 6.77726 127 ft 12 kts 34°
2026-05-05 08:31 51.28995 6.77829 130 ft 13 kts 53°
2026-05-05 08:31 51.29049 6.77945 130 ft 13 kts 54°
2026-05-05 08:31 51.29102 6.78065 132 ft 13 kts 55°
2026-05-05 08:32 51.29153 6.78175 135 ft 13 kts 52°
2026-05-05 08:32 51.29211 6.78290 140 ft 14 kts 52°
2026-05-05 08:32 51.29270 6.78414 145 ft 14 kts 53°
2026-05-05 08:32 51.29330 6.78536 150 ft 14 kts 44°
2026-05-05 08:33 51.29426 6.78569 153 ft 15 kts 357°
2026-05-05 08:33 51.29516 6.78498 151 ft 17 kts 279°
2026-05-05 08:33 51.29478 6.78388 148 ft 19 kts 232°
2026-05-05 08:33 51.29160 6.77716 132 ft 112 kts 233°
2026-05-05 08:34 51.28552 6.76438 275 ft 162 kts 234°
2026-05-05 08:34 51.27859 6.75008 1044 ft 163 kts 233°
2026-05-05 08:34 51.27179 6.73565 1878 ft 161 kts 233°
2026-05-05 08:34 51.26791 6.71902 2552 ft 164 kts 269°
2026-05-05 08:35 51.27127 6.70183 3222 ft 167 kts 306°
2026-05-05 08:35 51.28093 6.69044 3680 ft 184 kts 334°
2026-05-05 08:35 51.29409 6.68560 4075 ft 207 kts
2026-05-05 08:35 51.30933 6.68731 4582 ft 232 kts
2026-05-05 08:36 51.32655 6.68935 4941 ft 264 kts
2026-05-05 08:36 51.34497 6.69136 4995 ft 272 kts
2026-05-05 08:36 51.36441 6.69340 5539 ft 287 kts
2026-05-05 08:36 51.38411 6.69543 6801 ft 281 kts
2026-05-05 08:37 51.40379 6.69674 7485 ft 283 kts
2026-05-05 08:37 51.42353 6.69697 8144 ft 285 kts
2026-05-05 08:37 51.44343 6.69676 8824 ft 287 kts 360°
2026-05-05 08:37 51.46354 6.69648 9510 ft 290 kts 360°
2026-05-05 08:38 51.48387 6.69624 10168 ft 297 kts
2026-05-05 08:38 51.50507 6.69609 10814 ft 311 kts
2026-05-05 08:38 51.52709 6.69606 11470 ft 323 kts
2026-05-05 08:38 51.54995 6.69609 12144 ft 334 kts
2026-05-05 08:39 51.57353 6.69656 12826 ft 343 kts
2026-05-05 08:39 51.59720 6.70360 13525 ft 351 kts 17°
2026-05-05 08:39 51.61976 6.71943 14166 ft 358 kts 30°
2026-05-05 08:39 51.63986 6.74367 14805 ft 365 kts 43°
2026-05-05 08:40 51.65638 6.77497 15446 ft 370 kts 53°
2026-05-05 08:40 51.67179 6.80850 16096 ft 374 kts 53°
2026-05-05 08:40 51.68734 6.84245 16756 ft 380 kts 53°
2026-05-05 08:40 51.70315 6.87697 17388 ft 385 kts 53°
2026-05-05 08:41 51.71919 6.91203 18043 ft 390 kts 53°
2026-05-05 08:41 51.72988 6.93539 18420 ft 394 kts 53°
2026-05-05 08:41 51.75189 6.98341 19151 ft 401 kts 53°
2026-05-05 08:41 51.76294 7.00754 19506 ft 405 kts 53°
2026-05-05 08:42 51.78533 7.05648 20237 ft 412 kts 53°
2026-05-05 08:42 51.80238 7.09387 20794 ft 416 kts 53°
2026-05-05 08:42 51.81958 7.13179 21350 ft 420 kts 53°
2026-05-05 08:42 51.83694 7.17013 21921 ft 424 kts 53°
2026-05-05 08:43 51.85476 7.20850 22450 ft 428 kts 49°
2026-05-05 08:43 51.86808 7.23218 22762 ft 431 kts 45°
2026-05-05 08:43 51.88890 7.26720 22911 ft 436 kts 44°
2026-05-05 08:43 51.91029 7.30315 22932 ft 448 kts 45°
2026-05-05 08:44 51.93198 7.33964 22933 ft 451 kts 45°
2026-05-05 08:44 51.95377 7.37639 22937 ft 452 kts 45°
2026-05-05 08:44 51.97554 7.41320 22940 ft 453 kts 45°
2026-05-05 08:44 51.99731 7.45021 22941 ft 453 kts 45°
2026-05-05 08:45 52.01902 7.48724 22942 ft 453 kts 45°
2026-05-05 08:45 52.04069 7.52426 22945 ft 453 kts 45°
2026-05-05 08:45 52.06238 7.56146 22949 ft 453 kts 45°
2026-05-05 08:45 52.08404 7.59862 22948 ft 453 kts 45°
2026-05-05 08:46 52.10579 7.63585 22946 ft 453 kts 45°
2026-05-05 08:46 52.12762 7.67269 22946 ft 453 kts 44°
2026-05-05 08:46 52.14960 7.70932 22943 ft 453 kts 44°
2026-05-05 08:46 52.17167 7.74592 22942 ft 452 kts 44°
2026-05-05 08:47 52.19359 7.78231 22941 ft 443 kts 44°
2026-05-05 08:47 52.21481 7.81795 22368 ft 436 kts 44°
2026-05-05 08:47 52.23607 7.85405 21018 ft 447 kts 45°
2026-05-05 08:47 52.25762 7.89094 19998 ft 449 kts 45°
2026-05-05 08:48 52.27904 7.92786 19218 ft 445 kts 45°
2026-05-05 08:48 52.30020 7.96441 18510 ft 440 kts 45°
2026-05-05 08:48 52.32111 8.00052 17757 ft 435 kts 45°
2026-05-05 08:48 52.34181 8.03623 17047 ft 430 kts 45°
2026-05-05 08:49 52.36217 8.07140 16589 ft 420 kts 45°
2026-05-05 08:49 52.38179 8.10531 16155 ft 412 kts 45°
2026-05-05 08:49 52.40133 8.13904 15727 ft 405 kts 45°
2026-05-05 08:49 52.42057 8.17226 15304 ft 400 kts 45°
2026-05-05 08:50 52.43961 8.20518 14888 ft 397 kts 45°
2026-05-05 08:50 52.45849 8.23791 14474 ft 394 kts 46°
2026-05-05 08:50 52.47720 8.27037 14070 ft 392 kts 46°
2026-05-05 08:50 52.49588 8.30287 13660 ft 390 kts 46°
2026-05-05 08:51 52.51445 8.33523 13201 ft 388 kts 46°
2026-05-05 08:51 52.53263 8.36763 12754 ft 382 kts 50°
2026-05-05 08:51 52.54698 8.40367 12313 ft 374 kts 63°
2026-05-05 08:51 52.55606 8.44316 11877 ft 370 kts 77°
2026-05-05 08:52 52.55852 8.48555 11415 ft 373 kts 90°
2026-05-05 08:52 52.55840 8.52817 10956 ft 370 kts 91°
2026-05-05 08:52 52.55807 8.56948 10825 ft 353 kts 92°
2026-05-05 08:52 52.55764 8.60838 10699 ft 338 kts 92°
2026-05-05 08:53 52.55715 8.64609 10573 ft 324 kts 92°
2026-05-05 08:53 52.55665 8.68293 10448 ft 312 kts 92°
2026-05-05 08:53 52.55621 8.71744 10277 ft 303 kts 92°
2026-05-05 08:53 52.55579 8.75176 10000 ft 299 kts 92°
2026-05-05 08:54 52.55537 8.78597 9931 ft 299 kts 92°
2026-05-05 08:54 52.55491 8.82013 9940 ft 299 kts 92°
2026-05-05 08:54 52.55446 8.85439 9940 ft 300 kts 92°
2026-05-05 08:54 52.55402 8.88808 9925 ft 286 kts 92°
2026-05-05 08:55 52.55360 8.91971 9932 ft 270 kts 92°
2026-05-05 08:55 52.55318 8.95028 9930 ft 266 kts 92°
2026-05-05 08:55 52.55273 8.98064 9929 ft 265 kts 92°
2026-05-05 08:55 52.55228 9.01091 9927 ft 265 kts 92°
2026-05-05 08:56 52.55183 9.04107 9587 ft 263 kts 92°
2026-05-05 08:56 52.55140 9.07102 9197 ft 262 kts 92°
2026-05-05 08:56 52.55097 9.10079 8895 ft 260 kts 92°
2026-05-05 08:56 52.55054 9.13048 8545 ft 259 kts 92°
2026-05-05 08:57 52.55011 9.15995 8206 ft 257 kts 93°
2026-05-05 08:57 52.54967 9.18913 7857 ft 255 kts 93°
2026-05-05 08:57 52.54921 9.21818 7514 ft 253 kts 93°
2026-05-05 08:57 52.54874 9.24705 7153 ft 252 kts 93°
2026-05-05 08:58 52.54828 9.27569 6921 ft 249 kts 93°
2026-05-05 08:58 52.54780 9.30428 6918 ft 251 kts 93°
2026-05-05 08:58 52.54730 9.33298 6919 ft 252 kts 93°
2026-05-05 08:58 52.54680 9.36135 6917 ft 252 kts 93°
2026-05-05 08:59 52.54629 9.39010 6918 ft 252 kts 93°
2026-05-05 08:59 52.54579 9.41892 6918 ft 252 kts 93°
2026-05-05 08:59 52.54529 9.44768 6922 ft 252 kts 93°
2026-05-05 08:59 52.54475 9.47655 6921 ft 252 kts 93°
2026-05-05 09:00 52.54421 9.50535 6920 ft 253 kts 93°
2026-05-05 09:00 52.54367 9.53424 6921 ft 252 kts 93°
2026-05-05 09:00 52.54313 9.56298 6920 ft 252 kts 93°
2026-05-05 09:00 52.54258 9.59185 6922 ft 252 kts 93°
2026-05-05 09:01 52.54201 9.62063 6924 ft 252 kts 93°
2026-05-05 09:01 52.54144 9.64945 6918 ft 252 kts 93°
2026-05-05 09:01 52.54086 9.67825 6918 ft 252 kts 93°
2026-05-05 09:01 52.54026 9.70704 6921 ft 252 kts 93°
2026-05-05 09:02 52.53968 9.73583 6919 ft 252 kts 93°
2026-05-05 09:02 52.53911 9.76462 6905 ft 253 kts 93°
2026-05-05 09:02 52.53852 9.79343 6777 ft 252 kts 93°
2026-05-05 09:02 52.53790 9.82219 6654 ft 251 kts 93°
2026-05-05 09:03 52.53728 9.85109 6306 ft 257 kts 93°
2026-05-05 09:03 52.53665 9.88072 5785 ft 262 kts 93°
2026-05-05 09:03 52.53601 9.91071 5259 ft 262 kts 93°
2026-05-05 09:03 52.53538 9.93985 4812 ft 255 kts 93°
2026-05-05 09:04 52.53476 9.96843 4410 ft 246 kts 93°
2026-05-05 09:04 52.53413 9.99613 4289 ft 241 kts 93°
2026-05-05 09:04 52.53350 10.02362 4160 ft 240 kts 93°
2026-05-05 09:04 52.53287 10.05109 4052 ft 240 kts 93°
2026-05-05 09:05 52.53221 10.07842 4003 ft 239 kts 93°
2026-05-05 09:05 52.53148 10.10572 4005 ft 239 kts 96°
2026-05-05 09:05 52.52619 10.13112 4006 ft 236 kts 127°
2026-05-05 09:05 52.51368 10.14768 4010 ft 232 kts 161°
2026-05-05 09:06 52.49799 10.15156 4013 ft 229 kts 182°
2026-05-05 09:06 52.48252 10.14688 4003 ft 226 kts 208°
2026-05-05 09:06 52.47120 10.12958 4005 ft 225 kts 238°
2026-05-05 09:06 52.46368 10.10700 4004 ft 226 kts 244°
2026-05-05 09:07 52.45691 10.08450 4001 ft 212 kts 244°
2026-05-05 09:07 52.45083 10.06387 4000 ft 195 kts 244°
2026-05-05 09:07 52.44556 10.04440 3986 ft 180 kts 254°
2026-05-05 09:07 52.44473 10.02428 3970 ft 179 kts 271°
2026-05-05 09:08 52.44538 10.00393 3729 ft 177 kts 272°
2026-05-05 09:08 52.44600 9.98421 3504 ft 171 kts 271°
2026-05-05 09:08 52.44659 9.96509 3272 ft 165 kts 272°
2026-05-05 09:08 52.44715 9.94638 3051 ft 163 kts 272°
2026-05-05 09:09 52.44770 9.92826 2842 ft 152 kts 272°
2026-05-05 09:09 52.44819 9.91186 2637 ft 138 kts 272°
2026-05-05 09:09 52.44865 9.89643 2463 ft 134 kts 272°
2026-05-05 09:09 52.44910 9.88124 2280 ft 133 kts 273°
2026-05-05 09:10 52.44955 9.86614 2107 ft 133 kts 273°
2026-05-05 09:10 52.44999 9.85104 1930 ft 133 kts 274°
2026-05-05 09:10 52.45043 9.83608 1751 ft 133 kts 274°
2026-05-05 09:10 52.45087 9.82091 1565 ft 133 kts 274°
2026-05-05 09:11 52.45131 9.80575 1385 ft 133 kts 274°
2026-05-05 09:11 52.45175 9.79061 1200 ft 133 kts 275°
2026-05-05 09:11 52.45219 9.77553 1010 ft 131 kts 275°
2026-05-05 09:11 52.45261 9.76067 829 ft 130 kts 275°
2026-05-05 09:12 52.45304 9.74592 662 ft 128 kts 274°
2026-05-05 09:12 52.45345 9.73137 480 ft 128 kts 275°
2026-05-05 09:12 52.45386 9.71687 305 ft 127 kts 276°
2026-05-05 09:12 52.45429 9.70295 187 ft 108 kts 272°
2026-05-05 09:13 52.45449 9.69354 189 ft 61 kts 274°
2026-05-05 09:13 52.45472 9.68831 185 ft 41 kts 271°
2026-05-05 09:13 52.45483 9.68348 184 ft 37 kts 279°
2026-05-05 09:13 52.45556 9.68228 191 ft 2 kts 11°
2026-05-05 09:14 52.45577 9.68239 190 ft 7 kts 14°
2026-05-05 09:14 52.45582 9.68241 190 ft 0 kts 14°
2026-05-05 09:15 52.45584 9.68242 190 ft 3 kts 14°
2026-05-05 09:15 52.45617 9.68260 196 ft 5 kts 28°
2026-05-05 09:15 52.45644 9.68318 197 ft 8 kts 66°
2026-05-05 09:15 52.45646 9.68417 191 ft 10 kts 90°
2026-05-05 09:16 52.45641 9.68547 204 ft 13 kts 95°
2026-05-05 09:16 52.45633 9.68720 191 ft 16 kts 94°
2026-05-05 09:16 52.45628 9.68896 205 ft 14 kts 92°
2026-05-05 09:16 52.45625 9.69050 191 ft 12 kts 91°
2026-05-05 09:17 52.45663 9.69142 196 ft 10 kts 11°
2026-05-05 09:17 52.45723 9.69155 191 ft 8 kts 16°
2026-05-05 09:17 52.45767 9.69191 202 ft 6 kts 32°
2026-05-05 09:17 52.45794 9.69232 199 ft 4 kts 46°
2026-05-05 09:18 52.45811 9.69263 198 ft 3 kts 46°
2026-05-05 09:18 52.45824 9.69284 196 ft 2 kts 46°
2026-05-05 09:18 52.45833 9.69301 199 ft 3 kts 49°
2026-05-05 09:18 52.45851 9.69334 196 ft 0 kts 48°